This is the latest recevied weather packets stored in our database for station/object W8RSN-13. If no packets are shown the sender has not sent any weather packets the latest 10 day(s).
| Time | Temp. | Humidity | Pressure | Rain* | Wind** | Luminosity | Snow |
|---|---|---|---|---|---|---|---|
| 1788482968 | 27.22° C | 46% | 1012.7 hPa | - | - | - | - |
| 1788482675 | 27.22° C | 47% | 1012.5 hPa | - | - | - | - |
| 1788482367 | 27.22° C | 47% | 1012.5 hPa | - | - | - | - |
| 1788482066 | 27.22° C | 47% | 1012.6 hPa | - | - | - | - |
| 1788481765 | 27.22° C | 47% | 1012.6 hPa | - | - | - | - |
| 1788481464 | 27.78° C | 46% | 1012.6 hPa | - | - | - | - |
| 1788481163 | 27.78° C | 46% | 1012.6 hPa | - | - | - | - |
| 1788480862 | 27.78° C | 46% | 1012.7 hPa | - | - | - | - |
| 1788480561 | 27.78° C | 46% | 1012.8 hPa | - | - | - | - |
| 1788480260 | 27.78° C | 46% | 1012.7 hPa | - | - | - | - |
| 1788479959 | 27.78° C | 46% | 1012.5 hPa | - | - | - | - |
| 1788479658 | 27.78° C | 47% | 1012.7 hPa | - | - | - | - |
| 1788479358 | 27.78° C | 45% | 1012.8 hPa | - | - | - | - |
| 1788479057 | 28.33° C | 45% | 1012.7 hPa | - | - | - | - |
| 1788478756 | 28.33° C | 44% | 1012.8 hPa | - | - | - | - |
| 1788478475 | 28.33° C | 45% | 1012.8 hPa | - | - | - | - |
| 1788478174 | 28.89° C | 43% | 1012.7 hPa | - | - | - | - |
| 1788477873 | 28.89° C | 43% | 1012.5 hPa | - | - | - | - |
| 1788477572 | 29.44° C | 43% | 1012.8 hPa | - | - | - | - |
| 1788477272 | 29.44° C | 43% | 1013 hPa | - | - | - | - |
| 1788476971 | 28.89° C | 43% | 1013 hPa | - | - | - | - |
| 1788476670 | 28.33° C | 45% | 1013 hPa | - | - | - | - |
| 1788476369 | 28.33° C | 45% | 1013 hPa | - | - | - | - |
| 1788476068 | 28.33° C | 46% | 1012.9 hPa | - | - | - | - |
| 1788475767 | 27.78° C | 46% | 1012.9 hPa | - | - | - | - |
* Rain since midnight (hover to see other rain measurements)
** Current wind speed in m/s (hover to see current wind gust speed)